Regional Weather Roundup
Issued by NWS Green Bay, WI

Home | Current Version | Previous Version | Text Only | Print | Product List | Glossary On
Versions: 1 2 3 4 5 6 7 8 9 10 11 12 13 14 15 16 17 18 19 20 21 22 23 24 25 26 27 28 29 30 31 32 33 34 35 36 37 38 39 40 41 42 43 44 45 46 47 48 49 50
000
ASUS43 KGRB 241711
RWRGRB

NORTH-CENTRAL AND NORTHEAST WISCONSIN REGIONAL WEATHER ROUNDUP
NATIONAL WEATHER SERVICE GREEN BAY WI
1200 PM CDT WED AUG 24 2016

WIZ005-009-010>012-018-019-241800-
NORTH CENTRAL WISCONSIN

CITY           SKY/WX    TMP DP  RH WIND       PRES   REMARKS
IRONWOOD       CLOUDY    73  66  78 VRB3      29.83F
MANITOWISH WTR CLOUDY    69  69 100 W6        29.84S
ARBOR VITAE    DRIZZLE   71  69  95 W6        29.85S
EAGLE RIVER    DRIZZLE   69  69 100 W12       29.84S
LAND O LAKES   CLOUDY    70  67  92 W7        29.85S
RHINELANDER    CLOUDY    70  68  93 SW10      29.87R
PHILLIPS       CLOUDY    70  69  96 W3        29.86S
ANTIGO         CLOUDY    67  66  97 SW12      29.88S
TOMAHAWK       CLOUDY    69  66  90 SW7       29.88R
MERRILL        CLOUDY    69  69  99 W9        29.88S FOG
$$

WIZ013-073-241800-
NORTHEAST WISCONSIN

CITY           SKY/WX    TMP DP  RH WIND       PRES   REMARKS
IRON MOUNTAIN  CLOUDY    71  66  84 SW8       29.83S
MARINETTE      LGT RAIN N/A N/A N/A W5        29.86
OCONTO         CLOUDY    74  67  78 SW9       29.85S
$$

WIZ017-030-035>037-045-241800-
CENTRAL WISCONSIN

CITY           SKY/WX    TMP DP  RH WIND       PRES   REMARKS
MEDFORD        CLOUDY    71  71 100 W9        29.88S
WAUSAU         CLOUDY    68  67  96 SW9       29.87R FOG
MOSINEE        CLOUDY    68  68 100 SW10      29.89S FOG
MARSHFIELD     CLOUDY    70  67  90 SW12      29.88S FOG
WISC RAPIDS    CLOUDY    71  70  96 SW7       29.90S
STEVENS POINT  CLOUDY    68  67  98 SW12      29.89S
WAUPACA        CLOUDY    76  70  81 S14       29.89R
SHAWANO        CLOUDY    74  69  83 W7        29.87S
CLINTONVILLE   CLOUDY    75  68  78 SW18G24   29.87S
WAUTOMA        PTSUNNY   74  68  81 SW14      29.90R
$$

WIZ038-039-048-051-241800-
FOX VALLEY

CITY           SKY/WX    TMP DP  RH WIND       PRES   REMARKS
NWS GREEN BAY  CLOUDY    75  69  81 SW13      29.87R
APPLETON       PTSUNNY   75  66  73 SW14      29.88R
OSHKOSH        CLOUDY    77  67  71 SW16G24   29.89S
FOND DU LAC    CLOUDY    76  68  76 SW16G24   29.91S
$$

WIZ022-050-052-241800-
EAST CENTRAL WISCONSIN

CITY           SKY/WX    TMP DP  RH WIND       PRES   REMARKS
EPHRAIM        CLOUDY    71  70  98 SW7       29.85S
WASHINGTON ISL NOT AVBL
STURGEON BAY   PTSUNNY   76  69  79 SW12      29.86S
MANITOWOC      CLOUDY    75  66  73 SW13G18   29.90R
SHEBOYGAN      PTSUNNY   77  67  71 SW16      29.90S
$$

LMZ563-521-522-541>543-241800-
LAKESHORE

STATION/POSITION TIME  TEMP    WIND        PRES    VSBY  WAVE
                       AIR SEA DIR/SP/G                  HT/PER
                 (UTC) (F)     (DEG/KT/KT) (MB)    (MI)  (FT/S)
SHEBOYGAN LKSHOR 1700   72     190/  8/  9 1011.7F
KEWAUNEE LKSHORE 1600   73     230/  8/ 13 1010.9R
NORTHPORT PIER   1600   72     210/  4/ 10 1010.8R
N MID LAKE BUOY  1650   71 70  210/ 17/ 19 1009.8F         8/ 7
S GREEN BAY BUOY 1600   72 73  210/ 16/ 19 1010.5
SISTER BAY LKSHO 1607   73     230/ 12/ 14   N/A
CHAMBERS ISLAND  1600   71     190/  5/ 12 1010.8R
MENOMINEE LKSHOR 1600   72     220/  9/ 13 1010.2R
$$



USA.gov is the U.S. government's official web portal to all federal, state and local government web resources and services.